This is the latest recevied weather packets stored in our database for station/object W0CHP-13. If no packets are shown the sender has not sent any weather packets the latest 10 day(s).
| Time | Temp. | Humidity | Pressure | Rain* | Wind** | Luminosity | Snow |
|---|---|---|---|---|---|---|---|
| 1777551437 | 5° C | 71% | 1014.8 hPa | 0 mm | - | 72 W/m² | - |
| 1777550835 | 4.44° C | 70% | 1014.6 hPa | 0 mm | - | 43 W/m² | - |
| 1777550237 | 4.44° C | 70% | 1014.8 hPa | 0 mm | - | 35 W/m² | - |
| 1777549636 | 4.44° C | 70% | 1014.9 hPa | 0 mm | - | 23 W/m² | - |
| 1777549038 | 4.44° C | 69% | 1014.8 hPa | 0 mm | - | 20 W/m² | - |
| 1777548436 | 4.44° C | 70% | 1014.8 hPa | 0 mm | - | 11 W/m² | - |
| 1777547838 | 4.44° C | 69% | 1014.8 hPa | 0 mm | - | 7 W/m² | - |
| 1777547237 | 4.44° C | 69% | 1014.8 hPa | 0 mm | - | 3 W/m² | - |
| 1777546635 | 4.44° C | 70% | 1014.8 hPa | 0 mm | - | 1 W/m² | - |
| 1777546037 | 3.89° C | 69% | 1015 hPa | 0 mm | - | 0 W/m² | - |
| 1777545435 | 3.89° C | 69% | 1015.1 hPa | 0 mm | - | 0 W/m² | - |
| 1777544837 | 3.89° C | 68% | 1014.9 hPa | 0 mm | - | 0 W/m² | - |
| 1777544235 | 3.89° C | 68% | 1014.9 hPa | 0 mm | - | 0 W/m² | - |
| 1777543638 | 3.89° C | 67% | 1014.9 hPa | 0 mm | - | 0 W/m² | - |
| 1777543036 | 3.89° C | 67% | 1014.9 hPa | 0 mm | - | 0 W/m² | - |
| 1777542438 | 3.33° C | 66% | 1015.1 hPa | 0 mm | - | 0 W/m² | - |
| 1777541836 | 3.33° C | 66% | 1015.1 hPa | 0 mm | - | 0 W/m² | - |
| 1777541238 | 3.89° C | 65% | 1015.3 hPa | 0 mm | - | 0 W/m² | - |
| 1777540636 | 3.89° C | 65% | 1015.1 hPa | 0 mm | - | 0 W/m² | - |
| 1777540038 | 3.89° C | 65% | 1015.1 hPa | 0 mm | - | 0 W/m² | - |
| 1777539437 | 3.89° C | 65% | 1015.1 hPa | 0 mm | - | 0 W/m² | - |
| 1777538835 | 4.44° C | 64% | 1015.1 hPa | 0 mm | - | 0 W/m² | - |
| 1777538237 | 4.44° C | 64% | 1015.1 hPa | 0 mm | - | 0 W/m² | - |
| 1777537635 | 4.44° C | 63% | 1015.1 hPa | 0 mm | - | 0 W/m² | - |
| 1777537037 | 4.44° C | 63% | 1015.1 hPa | 0 mm | - | 0 W/m² | - |
* Rain latest hour (hover to see other rain measurements)
** Current wind speed in m/s (hover to see current wind gust speed)